Location: Petruro
(41.0333°N, 14.7833°E)
Time: 20:53:54
(UTC+00:00)

deb Delta 139 - Visible Passes

Search period start: 22 January 2022 00:00
Search period end: 01 February 2022 00:00
Orbit: 864 x 892 km, 99.2° (Epoch: 22 January)

Date Brightness Start Highest point End Pass type
(mag) Time Alt. Az. Time Alt. Az. Time Alt. Az.
22 Jan ? 03:21:05 10° NNE 03:23:43 29° NNE 03:23:43 29° NNE visible
22 Jan ? 05:03:58 10° NNW 05:06:18 15° NW 05:06:18 15° NW visible
23 Jan ? 03:17:17 10° NNE 03:19:59 29° NNE 03:19:59 29° NNE visible
23 Jan ? 05:00:00 10° NNW 05:02:35 17° NW 05:02:35 17° NW visible
24 Jan ? 03:13:30 10° NNE 03:16:15 30° NNE 03:16:15 30° NNE visible
24 Jan ? 04:56:02 10° NNW 04:58:51 18° NW 04:58:51 18° NW visible
25 Jan ? 03:09:44 10° NNE 03:12:32 30° NNE 03:12:32 30° NNE visible
25 Jan ? 04:52:05 10° NNW 04:55:08 19° NW 04:55:08 19° NW visible
26 Jan ? 03:05:57 10° NNE 03:08:50 30° NE 03:08:50 30° NE visible
26 Jan ? 04:48:09 10° NNW 04:51:25 20° NW 04:51:25 20° NW visible
27 Jan ? 03:02:12 10° NNE 03:05:07 30° NE 03:05:07 30° NE visible
27 Jan ? 04:44:14 10° NNW 04:47:42 22° NW 04:47:42 22° NW visible
28 Jan ? 02:58:26 10° NNE 03:01:24 30° NE 03:01:24 30° NE visible
28 Jan ? 04:40:20 10° N 04:44:00 24° NW 04:44:00 24° NW visible
29 Jan ? 02:54:40 10° NNE 02:57:43 30° NE 02:57:43 30° NE visible
29 Jan ? 04:36:25 10° N 04:40:18 25° NW 04:40:18 25° NW visible
30 Jan ? 02:50:56 10° NNE 02:54:01 29° NE 02:54:01 29° NE visible
30 Jan ? 04:32:31 10° N 04:36:37 27° NW 04:36:37 27° NW visible
31 Jan ? 02:47:11 10° NNE 02:50:20 29° NE 02:50:20 29° NE visible
31 Jan ? 04:28:39 10° N 04:32:55 29° NW 04:32:55 29° NW visible
